FW8761 Weather Reports


Display with metric or nautical units.
time (UTC)temp
F
wind
direction
speed
MPH
gust
MPH
rain 1hr
in
rain 24hr
in
rain mn
in
humidity
%
barometer
mb
20260510104528 71 178 3.0 8.0 0.00 0.00 0.00 81 1009.8
20260510103028 71 0 1.0 5.0 0.00 0.00 0.00 80 1010.2
20260510101527 72 0 0.0 2.0 0.00 0.00 0.00 80 1010.2
20260510100027 72 0 0.0 3.0 0.00 0.00 0.00 79 1010.1
20260510094540 73 221 0.0 2.0 0.00 0.00 0.00 78 1009.9
20260510093033 73 0 0.0 4.0 0.00 0.00 0.00 78 1009.8
20260510091534 73 192 2.0 4.0 0.00 0.00 0.00 77 1009.7
20260510090028 74 0 0.0 2.0 0.00 0.00 0.00 76 1009.7
20260510084527 74 0 0.0 4.0 0.00 0.00 0.00 76 1009.7
20260510083047 74 184 1.0 4.0 0.00 0.00 0.00 75 1009.6
20260510081530 75 215 0.0 5.0 0.00 0.00 0.00 75 1009.6
20260510080028 75 227 2.0 5.0 0.00 0.00 0.00 75 1009.5
20260510074529 75 226 0.0 4.0 0.00 0.00 0.00 74 1009.4
20260510073027 76 205 2.0 6.0 0.00 0.00 0.00 74 1009.4
20260510071534 76 207 2.0 7.0 0.00 0.00 0.00 74 1009.5
20260510070028 76 192 3.0 8.0 0.00 0.00 0.00 73 1009.7
20260510064531 77 195 1.0 5.0 0.00 0.00 0.00 72 1009.5
20260510063031 77 0 1.0 4.0 0.00 0.00 0.00 72 1009.6
20260510061534 77 178 3.0 7.0 0.00 0.00 0.00 71 1009.7
20260510060037 78 189 3.0 10.0 0.00 0.00 0.00 71 1009.6
20260510054537 78 192 3.0 10.0 0.00 0.00 0.00 71 1009.4
20260510053030 78 216 3.0 7.0 0.00 0.00 0.00 70 1009.4
20260510051534 79 189 2.0 8.0 0.00 0.00 0.00 69 1009.2
20260510050029 79 171 2.0 8.0 0.00 0.00 0.00 69 1009.3
20260510044530 80 192 3.0 9.0 0.00 0.00 0.00 68 1009.0
20260510043034 81 181 4.0 9.0 0.00 0.00 0.00 67 1009.1
20260510041527 81 126 3.0 9.0 0.00 0.00 0.00 66 1009.0
20260510040028 81 170 2.0 4.0 0.00 0.00 0.00 65 1008.8
20260510034528 82 180 1.0 6.0 0.00 0.00 0.00 64 1008.6
20260510033028 82 0 2.0 5.0 0.00 0.00 0.00 64 1008.5
20260510031529 82 180 0.0 6.0 0.00 0.00 0.00 64 1008.5
20260510030030 83 126 1.0 5.0 0.00 0.00 0.00 64 1008.2
20260510024527 83 213 1.0 5.0 0.00 0.00 0.00 63 1008.1
20260510023028 83 136 3.0 8.0 0.00 0.00 0.00 61 1008.0
20260510021528 84 165 1.0 5.0 0.00 0.00 0.00 59 1007.8
20260510020030 84 169 2.0 7.0 0.00 0.00 0.00 58 1007.7
20260510014529 85 176 2.0 7.0 0.00 0.00 0.00 56 1007.5
20260510013029 85 195 3.0 11.0 0.00 0.00 0.00 54 1007.0
20260510011528 86 166 3.0 12.0 0.00 0.00 0.00 53 1006.9
20260510010030 87 143 5.0 10.0 0.00 0.00 0.00 56 1006.6
20260510004527 88 165 3.0 9.0 0.00 0.00 0.00 55 1006.5
20260510003037 89 196 3.0 8.0 0.00 0.00 0.00 53 1006.3
20260510001528 89 196 4.0 10.0 0.00 0.00 0.00 52 1006.2
20260510000030 90 200 2.0 8.0 0.00 0.00 0.00 50 1005.7
20260509234538 91 188 5.0 10.0 0.00 0.00 0.00 48 1005.6
20260509233032 92 189 1.0 6.0 0.00 0.00 0.00 48 1006.1
20260509231530 93 194 2.0 9.0 0.00 0.00 0.00 47 1006.2
20260509230031 93 204 3.0 9.0 0.00 0.00 0.00 48 1006.3
20260509224528 94 181 3.0 7.0 0.00 0.00 0.00 47 1006.2
20260509223031 94 262 1.0 7.0 0.00 0.00 0.00 48 1006.1
20260509221530 94 207 2.0 7.0 0.00 0.00 0.00 47 1006.1
20260509220030 94 126 3.0 6.0 0.00 0.00 0.00 48 1006.2
20260509214527 94 200 1.0 7.0 0.00 0.00 0.00 51 1006.2
20260509213031 94 207 5.0 11.0 0.00 0.00 0.00 49 1006.3
20260509211529 95 252 3.0 7.0 0.00 0.00 0.00 48 1006.4
20260509210026 95 215 2.0 8.0 0.00 0.00 0.00 48 1006.7
20260509204530 95 313 2.0 10.0 0.00 0.00 0.00 48 1006.9
20260509203038 95 327 4.0 11.0 0.00 0.00 0.00 49 1007.1
20260509201528 95 219 1.0 4.0 0.00 0.00 0.00 50 1007.4
20260509200026 94 131 1.0 8.0 0.00 0.00 0.00 51 1007.6
20260509194526 93 0 2.0 7.0 0.00 0.00 0.00 49 1008.0
20260509193030 93 0 4.0 10.0 0.00 0.00 0.00 50 1008.1
20260509191537 93 306 2.0 8.0 0.00 0.00 0.00 53 1008.4
20260509190027 93 0 3.0 8.0 0.00 0.00 0.00 53 1008.5
20260509184529 91 226 2.0 9.0 0.00 0.00 0.00 53 1008.6
20260509183029 90 319 1.0 9.0 0.00 0.00 0.00 56 1008.7
20260509181527 90 192 2.0 9.0 0.00 0.00 0.00 59 1008.9
20260509180029 89 225 2.0 9.0 0.00 0.00 0.00 61 1009.0
20260509174527 89 306 3.0 8.0 0.00 0.00 0.00 63 1009.3
20260509173028 88 0 1.0 9.0 0.00 0.00 0.00 64 1009.3
20260509171531 87 333 1.0 9.0 0.00 0.00 0.00 65 1009.5
20260509170037 86 300 1.0 11.0 0.00 0.00 0.00 67 1009.5
20260509164536 84 336 3.0 10.0 0.00 0.00 0.00 71 1009.6
20260509163032 82 297 3.0 9.0 0.00 0.00 0.00 77 1009.4
20260509161533 80 168 1.0 5.0 0.00 0.00 0.00 82 1009.3
20260509160033 78 176 2.0 5.0 0.00 0.00 0.00 87 1009.3
20260509154532 76 352 0.0 7.0 0.00 0.00 0.00 91 1009.7
20260509153036 74 306 2.0 5.0 0.00 0.00 0.00 92 1010.0
20260509151530 73 200 2.0 6.0 0.00 0.00 0.00 93 1010.3
20260509150030 73 187 0.0 3.0 0.00 0.00 0.00 94 1010.3
20260509144532 73 0 0.0 3.0 0.00 0.00 0.00 94 1010.4
20260509143026 73 0 0.0 2.0 0.00 0.00 0.00 94 1010.2
20260509141528 73 149 0.0 3.0 0.00 0.00 0.00 94 1010.2
20260509140035 73 0 0.0 2.0 0.00 0.00 0.00 94 1010.0
20260509134529 73 0 0.0 4.0 0.00 0.00 0.00 94 1009.2
20260509133027 73 360 0.0 3.0 0.00 0.00 0.00 94 1009.2
20260509131532 73 0 0.0 2.0 0.00 0.00 0.00 95 1009.3
20260509130028 73 0 1.0 3.0 0.00 0.00 0.00 94 1009.3
20260509124526 73 0 0.0 3.0 0.00 0.00 0.00 94 1009.8
20260509123029 73 0 0.0 0.0 0.00 0.00 0.00 94 1009.6
20260509121528 73 0 0.0 3.0 0.00 0.00 0.00 94 1009.9
20260509120035 73 0 0.0 5.0 0.00 0.00 0.00 94 1009.8
20260509114529 73 343 0.0 4.0 0.00 0.00 0.00 94 1009.4
20260509113030 73 23 0.0 3.0 0.00 0.00 0.00 94 1009.0